STARLINK-31225, 59040

Orbit data source: Space-Track

STARLINK-31225, 59040 is a payload satellite owned by SpaceX/Seattle (US) in LEO that was launched on Sun, 25 Feb 2024 UTC via an FALCON 9 launch vehicle from the Air Force Eastern Test Range (AFETR). Payload-class satellites include a variety of spacecraft equipped with specific instruments for various scientific and technological missions. These include communications satellites like Starlink; space stations such as the ISS; scientific satellites like the Hubble; Earth observation satellites from companies like Planet Labs, Umbra, and HawkEye 360; GPS; miniature CubeSats for education and research; and military/defense satellites.

Loading next visibility...
Identifier
59040, 2024-038T
Orbit
LEO
Country
Flag of USUS
Related business
Manufacturer
SpaceX/Seattle
Mission
Operational Commercial Communications
Bus & Motor
STARLINK V2M, Unknown motor
Mass
730 kg wet, ~700 kg dry
Launch date (UTC)
2024-02-25 (2 years ago)
Launch vehicle
FALCON 9
Launch site
Air Force Eastern Test Range (AFETR)
Object type
Payload
Rocket body
Debris
Shape & HBR
Box + 2 Pan, 17.7 m
Radar Cross Section
33.884 m², Large (>1 m²)

Expand to show TLE details & history
Last TLE update: 2 days ago

TLE from 2 days ago
0 STARLINK-31225
1 59040U 24038T   26171.03642366  .00002595  00000-0  10378-3 0  9995
2 59040  43.0012 165.2859 0001052 258.6659 101.4075 15.27581726130348
Epoch: 2026-06-20T00:52Z
TLE epoch observation values (Epoch: 2026-06-20T00:52:27.004Z)
Latitude
0.00003°
Longitude
-116.0834°
Altitude
482.962 km
Speed
7.626 km/s
True Right ascension
11h 01m 08s
True Declination
0° 00' 00"
Sunlit
Object was in daylight at epoch
Visualization orbit readout
Latitude
Unknown
Longitude
Unknown
Altitude
Unknown
Speed
Unknown
Apparent Right ascension
Unknown
Apparent Declination
Unknown
Sunlit
N/A
Visualization observer readout
Local Sidereal Time
23:18:33
Azimuth
Unknown
Elevation
Unknown
Doppler factor
Unknown
Orbital elements
Apogee altitude
485.711 km
Perigee altitude
484.267 km
Semi-major axis
6,863.126 km
Eccentricity
0.00011
Inclination
43.0012°
RAAN
165.2859°
Arg. of periapsis
258.6659°
True anomaly
101.41932°
Mean anomaly
101.4075°
Eccentric anomaly
101.41341°
Mean motion
3.81733 °/min
Orbital period
94.31 mins
BSTAR
0.00010378
Loading maneuver chart data...
Computing Atmospheric mass density...
Loading historical data...
Loading historical data...
Loading historical data...
Loading historical data...
Loading historical data...
Loading historical data...
Loading historical data...

Documentation

Showing up to 5 results
|